Flag for Germany Weather past 2 weeks in Herford, North Rhine-Westphalia, Germany

Now
41 °F

Passing clouds.


Feels Like: 35 °F
Forecast: 34 / 39 °F
Wind: 10 mph from Northwest

Location: Bueckeburg

Current Time: Jan 26, 2015 at 10:20:33 PM

Latest Report: Jan 26, 2015 at 9:20 PM


Visibility: N/A

Pressure: 29.98 "Hg

Humidity: 87%

Dew point: 37 °F

Location of HerfordLocation

Historic Weather in Herford — Graph

°F

Herford temperature yesterday

Maximum temperature yesterday: 39 °F (at 3:20 PM)
Minimum temperature yesterday: 28 °F (at 12:20 AM)
Average temperature yesterday: 34 °F

Past Weeks' High & Low Weather Summary

 TemperatureHumidityPressure
High54 °F (Jan 13, 1:20 PM)100% (Jan 20, 6:20 AM)30.33 "Hg (Jan 20, 6:20 AM)
Low27 °F (Jan 21, 7:20 AM)58% (Jan 13, 1:20 PM)29.42 "Hg (Jan 15, 2:20 PM)
Average37 °F83%29.92 "Hg
* Reported Jan 11 8:20 PM — Jan 26 8:20 PM, Herford, Weather by CustomWeather, © 2014

Note: Actual official high and low records may vary slightly from our data, if they occured in-between our weather recording intervals... More about our weather records

Advertising

Herford weather history for previous 24 hours

 ConditionsComfort  
Time TempWeatherWind HumidityBarometerVisibility
8:20 PM
Jan 26
41 °FPartly cloudy.12 mph93%29.95 "HgN/A
7:20 PM41 °FPassing clouds.12 mph93%29.95 "HgN/A
6:20 PM41 °FDrizzle. Fog.13 mph93%29.95 "Hg2 mi
5:20 PM39 °FDrizzle. Fog.12 mph93%29.92 "Hg2 mi
5:00 PM39 °FDrizzle. Fog.12 mph93%29.92 "Hg1 mi
4:51 PM39 °FDrizzle. Fog.12 mph93%29.92 "Hg2 mi
4:20 PM39 °FFog.13 mph93%29.95 "Hg3 mi
3:20 PM39 °FDrizzle. Fog.13 mph93%29.95 "Hg2 mi
2:48 PM39 °FDrizzle. Partly sunny.12 mph93%29.98 "Hg4 mi
2:20 PM39 °FDrizzle. Partly sunny.13 mph93%29.98 "HgN/A
1:20 PM39 °FDrizzle. Partly sunny.9 mph93%30.01 "Hg5 mi
12:45 PM39 °FDrizzle. Partly sunny.9 mph87%30.04 "Hg5 mi
12:20 PM39 °FDrizzle. Fog.10 mph93%30.04 "Hg3 mi
11:20 AM37 °FDrizzle. Fog.10 mph93%30.09 "Hg2 mi
10:20 AM37 °FDrizzle. Mostly cloudy.9 mph93%30.09 "Hg4 mi
9:20 AM37 °FDrizzle. Fog.9 mph93%30.12 "Hg2 mi
8:20 AM37 °FFog.13 mph93%30.12 "Hg2 mi
7:50 AM37 °FDrizzle. Fog.12 mph93%30.15 "Hg2 mi
7:20 AM37 °FDrizzle. Fog.10 mph93%30.15 "Hg3 mi
6:20 AM37 °FDrizzle. Fog.9 mph93%30.18 "Hg2 mi
5:20 AM37 °FPassing clouds.9 mph87%30.18 "Hg5 mi
4:20 AM37 °FPassing clouds.12 mph87%30.21 "Hg4 mi
3:20 AM36 °FPassing clouds.7 mph93%30.24 "Hg5 mi
2:20 AM36 °FPassing clouds.8 mph93%30.24 "Hg5 mi
1:20 AM36 °FPassing clouds.6 mph93%30.27 "Hg4 mi
12:20 AM36 °FPartly cloudy.6 mph93%30.30 "Hg4 mi
11:20 PM
Jan 25
36 °FFog.6 mph93%30.30 "Hg3 mi
10:20 PM36 °FFog.3 mph93%30.30 "Hg3 mi
Weather by CustomWeather, © 2014

See weather overviewHow to use our weather pages